Theta_e
308 311 311 309 309 311 311 311 311 308 305 307 307 308 308 308 301 302 299 296 295 294 294 290 291 290 290 291 290 289 289 289 288 288 287 287 287 286 287 286 285 285 284 283
309 311 309 309 307 309 308 309 308 306 305 304 305 307 307 307 307 307 303 298 296 295 290 289 289 289 289 290 290 289 289 288 288 287 286 285 285 285 286 285 284 284 283 284
309 310 307 309 308 308 307 308 308 309 304 302 301 305 303 303 303 302 301 300 297 296 292 289 288 288 289 290 290 289 288 287 287 286 285 284 284 284 285 285 285 284 283 284
309 307 309 308 309 307 310 305 307 306 306 309 303 311 305 305 305 303 302 299 299 295 294 290 289 288 288 289 289 289 288 286 286 285 284 283 282 281 282 281 281 282 282 283
310 306 307 309 309 305 309 303 304 304 304 302 303 304 307 300 304 306 305 300 299 296 294 291 289 289 288 289 289 289 288 286 285 284 283 282 281 281 281 280 280 281 281 282
308 304 305 308 303 304 302 303 301 297 300 306 307 307 306 303 304 305 303 301 299 295 292 291 290 289 287 289 289 288 287 285 284 283 282 281 280 280 279 279 278 278 278 280
309 306 304 304 307 305 304 307 311 309 306 311 299 302 308 304 302 304 305 302 297 295 291 290 289 288 288 287 288 287 286 285 283 282 281 280 280 279 278 277 276 277 278 278
311 312 304 303 308 309 304 307 312 310 308 308 297 306 308 302 303 299 297 295 292 292 290 290 289 288 288 287 287 287 286 284 283 282 281 280 278 278 277 276 276 275 275 275
310 311 303 303 302 305 304 306 306 305 289 304 308 306 304 303 301 298 295 292 293 292 289 289 288 288 288 287 286 286 286 284 282 281 280 279 278 277 277 277 275 275 275 274
311 313 304 300 300 298 302 301 307 306 310 306 308 308 309 306 306 303 300 297 296 293 289 288 288 288 287 287 286 286 285 283 281 280 279 279 277 277 276 276 275 275 275 274
309 313 307 302 303 303 301 303 302 304 306 308 306 309 304 306 305 304 303 298 296 295 290 288 288 287 287 285 286 285 283 281 280 279 278 277 277 276 276 275 276 275 273 273
307 310 314 305 300 298 301 304 305 308 308 303 305 310 305 306 304 303 303 299 296 293 290 288 287 287 285 285 283 282 281 280 279 278 277 276 276 275 275 275 274 273 272 272
307 310 313 313 304 300 301 300 302 302 302 309 308 310 305 303 302 300 300 296 295 293 288 286 286 286 286 284 281 281 280 279 278 277 276 275 274 275 274 274 273 273 271 270
309 310 314 311 308 304 303 300 302 304 309 309 308 309 308 308 306 304 300 294 295 292 289 286 286 286 286 283 280 280 278 278 276 275 275 274 274 273 273 272 272 271 269 267
308 313 312 312 310 305 304 305 304 304 306 308 309 308 308 308 308 307 307 306 301 292 287 286 286 286 283 281 279 278 277 275 275 274 274 274 273 272 271 271 269 269 268 267
304 312 310 313 310 306 308 307 309 306 306 304 305 306 307 307 307 306 306 306 305 302 291 287 286 285 282 282 277 276 275 274 274 274 273 272 271 271 270 269 269 268 267 266
305 308 311 314 311 306 309 310 310 309 308 308 309 307 306 306 306 305 305 305 305 303 292 287 286 285 283 281 278 274 274 273 273 272 271 270 270 270 269 268 268 267 266 264
310 309 310 313 310 313 311 308 307 307 307 306 307 308 308 308 307 307 301 304 303 299 291 287 285 284 282 278 276 275 273 273 272 271 269 269 269 268 268 268 267 267 265 264
309 311 312 313 314 312 310 307 304 306 307 307 307 306 307 306 302 304 298 298 300 300 291 286 285 282 276 275 274 273 272 271 270 269 268 268 268 267 267 268 266 265 263 263
309 309 311 313 313 314 309 308 303 301 308 307 307 307 306 304 305 307 304 298 294 289 286 284 280 276 275 272 273 272 270 270 268 268 267 268 267 267 267 266 265 265 264 262
306 310 312 313 314 312 308 303 300 308 310 308 306 306 306 304 306 305 289 286 285 284 281 279 276 276 273 272 272 271 269 268 268 267 267 267 266 267 266 266 264 265 263 262
312 311 312 313 314 314 307 303 307 309 309 308 307 304 303 302 303 294 287 284 281 279 278 277 276 273 271 271 272 270 269 267 266 266 266 266 266 267 266 265 265 265 262 261
313 311 313 311 311 306 306 308 307 308 308 308 308 304 302 302 300 291 287 282 279 279 277 276 274 271 270 270 271 269 266 266 266 265 265 266 266 266 265 265 264 262 262 263
311 310 311 311 311 307 304 305 307 307 306 306 306 303 298 301 297 289 285 282 279 277 276 274 272 271 269 268 269 269 265 265 265 264 264 265 266 266 265 265 263 261 262 264
312 310 312 312 310 309 309 307 306 305 303 298 299 301 298 298 294 291 285 281 279 277 275 273 273 271 268 266 266 265 265 265 263 263 263 263 264 264 264 263 263 262 264 267
307 308 310 312 310 310 310 308 307 307 307 306 305 303 295 297 299 290 285 281 279 277 274 274 272 269 266 264 263 263 264 264 264 262 262 262 262 262 262 262 263 263 264 266
Wind_Speed
1 2 9 12 8 3 3 4 7 5 4 4 10 15 20 20 9 15 14 12 16 20 17 23 32 31 27 25 23 20 17 13 11 9 8 7 8 9 7 11 11 15 17 19
3 11 9 5 4 5 4 4 7 7 2 6 9 17 18 20 19 19 16 12 16 13 11 20 28 31 30 30 26 22 18 15 14 13 10 7 9 8 11 12 14 16 18 20
8 3 6 7 4 6 5 6 5 8 5 3 7 10 8 6 6 8 9 12 12 17 18 17 26 32 34 33 30 26 22 17 15 13 10 9 9 9 13 12 18 18 19 20
7 2 7 4 6 8 4 6 2 3 3 4 4 13 3 6 11 8 8 10 14 15 15 17 24 28 32 35 31 27 23 17 15 14 11 10 10 9 11 16 18 19 19 19
8 8 5 5 8 9 6 4 4 1 3 3 4 5 4 3 8 16 9 10 11 12 16 19 23 34 34 37 33 28 24 16 13 12 11 10 11 12 15 17 19 20 20 21
6 1 6 7 3 2 6 4 4 3 2 2 8 10 5 6 9 8 6 6 7 8 12 14 25 28 31 37 33 29 25 16 13 11 10 10 11 12 14 15 18 18 19 23
0 5 3 3 5 3 3 5 4 5 2 8 5 3 15 7 10 12 11 7 6 7 10 13 16 22 29 35 35 30 26 18 14 10 9 10 11 12 13 16 17 20 22 25
6 11 9 6 8 8 7 9 6 9 4 16 2 8 9 16 13 6 7 7 6 7 9 14 17 25 30 32 36 32 26 17 13 10 9 9 9 10 13 16 17 19 23 24
8 9 2 3 3 4 5 6 2 4 2 3 6 13 7 8 10 6 10 7 11 9 11 13 14 26 29 32 36 34 27 18 14 11 7 7 8 11 14 17 20 21 24 24
6 5 3 3 3 1 5 5 4 2 3 6 12 22 18 10 15 11 11 14 12 7 8 11 13 23 28 32 35 33 27 20 13 9 8 6 9 11 14 18 20 23 25 26
6 6 3 4 10 13 4 4 3 2 4 6 7 17 5 7 10 11 14 10 10 9 10 12 13 23 27 28 35 34 25 18 13 10 6 6 7 10 14 18 21 23 24 25
8 5 9 13 1 0 3 12 13 6 8 5 2 25 1 2 9 9 8 8 7 7 10 11 12 21 26 31 33 33 24 18 14 10 7 6 7 10 14 18 20 22 23 25
9 4 2 8 2 3 7 7 8 2 1 23 7 23 5 10 9 9 8 8 9 10 9 9 11 16 25 27 28 32 25 20 15 10 6 4 7 10 14 17 20 22 23 24
13 7 11 21 17 6 6 8 18 21 17 16 26 35 37 34 20 12 8 9 13 12 12 11 12 14 21 24 28 30 24 19 15 9 5 3 7 11 14 17 19 20 22 23
8 13 16 23 26 6 5 7 21 23 30 19 30 20 38 34 20 24 19 21 11 10 11 15 15 15 17 23 26 28 23 19 13 9 4 4 7 11 14 16 17 20 20 22
1 13 10 27 26 9 12 18 29 24 33 15 20 32 45 27 20 22 27 23 23 17 14 15 14 14 17 27 27 27 26 19 14 10 5 4 6 10 14 15 18 20 21 22
8 7 9 24 22 4 2 36 30 33 34 21 27 39 31 28 26 28 27 24 24 20 12 13 17 19 22 29 31 28 27 20 14 9 4 3 8 11 13 15 18 20 22 23
20 16 13 18 8 19 22 18 24 32 27 18 28 32 29 28 27 26 10 20 18 12 11 13 13 14 26 28 31 32 25 20 14 8 2 3 7 10 13 16 19 21 22 21
26 20 10 9 15 19 13 14 13 17 24 33 23 28 31 24 8 26 13 16 21 17 11 11 21 28 27 32 35 30 23 17 12 7 3 2 6 10 14 17 19 20 21 25
28 26 18 13 9 15 22 35 11 5 17 39 25 32 30 7 9 21 9 7 9 8 11 14 25 29 32 30 35 29 21 16 11 8 4 0 4 8 12 15 19 22 24 22
6 12 24 24 20 13 13 8 6 7 25 33 16 25 24 15 17 16 7 5 6 8 13 24 26 26 28 34 32 21 19 14 12 8 4 3 4 7 10 16 18 21 25 24
19 10 9 13 15 21 19 9 20 31 33 26 23 14 9 16 18 8 6 7 10 14 16 24 22 25 28 32 32 22 17 15 11 7 5 3 4 6 10 14 18 21 23 23
18 20 21 17 10 7 12 25 30 31 29 26 21 9 18 17 16 11 9 10 11 13 14 24 24 24 23 26 30 25 22 20 15 11 8 4 4 6 9 13 17 19 20 19
17 23 19 24 23 12 13 18 23 27 29 31 19 10 9 18 11 11 11 12 13 14 13 20 25 20 21 23 23 26 23 19 18 16 11 6 5 8 11 13 13 16 16 19
5 2 16 22 24 28 26 24 24 21 14 9 13 11 17 16 12 15 13 15 16 17 19 25 21 20 21 24 25 24 21 19 18 15 12 8 7 9 12 12 12 12 14 19
16 20 19 23 23 20 26 19 21 25 24 23 23 20 16 18 19 16 13 14 17 19 22 19 23 23 23 22 25 21 19 18 18 15 12 11 9 9 10 14 18 11 11 16
Wind_Direction
10 117 214 211 201 174 169 199 234 250 239 226 248 254 262 275 245 257 241 209 212 220 212 196 196 191 188 188 187 190 192 200 213 227 252 259 263 289 283 306 302 311 312 323
59 229 204 134 152 154 167 207 259 283 238 194 271 263 265 259 261 260 251 225 223 215 188 188 189 191 192 190 192 191 195 202 213 222 242 269 290 295 293 293 298 310 315 323
171 232 110 133 147 164 204 193 228 238 335 253 302 267 236 284 254 266 224 225 214 210 201 191 189 192 192 194 193 195 197 202 211 219 238 261 280 279 292 295 303 311 316 319
228 222 152 162 209 151 226 209 209 285 13 259 20 294 235 243 280 258 235 208 223 208 205 196 192 192 194 195 198 198 198 201 208 213 229 252 263 277 292 295 299 308 311 314
238 164 165 187 216 162 223 125 143 135 216 7 237 264 217 7 273 266 258 219 220 208 199 197 196 196 193 195 197 197 198 204 207 215 233 250 265 279 287 294 302 307 311 316
255 353 170 199 79 147 135 96 69 64 103 263 225 201 169 184 212 257 258 229 223 203 201 200 198 194 191 195 196 194 194 199 207 220 232 247 264 275 289 299 299 304 312 314
243 212 174 165 101 28 103 71 325 315 343 247 136 229 258 234 229 220 227 220 217 221 192 190 188 190 190 190 192 193 193 194 201 214 233 249 263 276 291 303 304 310 316 316
184 266 179 186 197 179 173 168 170 241 238 288 72 244 273 220 238 216 255 258 246 223 199 200 195 193 195 188 188 191 192 193 201 215 229 251 272 284 299 307 309 309 314 314
182 267 117 203 150 148 182 191 172 96 138 313 242 263 283 227 250 237 238 234 250 223 203 206 198 198 194 188 190 190 191 193 200 212 234 257 285 306 311 316 319 323 323 315
221 274 188 137 129 63 174 161 85 3 248 251 268 273 271 219 233 228 241 223 241 235 201 203 201 199 196 190 187 193 193 194 192 203 225 263 299 308 320 324 328 324 316 312
158 180 217 130 205 174 143 199 199 170 164 198 268 269 205 207 201 208 231 213 213 219 209 205 201 197 194 186 184 187 186 182 189 200 220 262 293 317 329 327 324 317 313 311
210 171 225 220 314 123 198 197 180 201 227 242 203 268 52 314 190 204 222 212 215 220 214 203 194 188 186 184 180 179 180 180 188 198 220 261 303 325 328 322 319 315 313 310
175 221 264 261 343 356 215 196 214 247 231 233 193 257 174 236 227 205 223 231 236 229 218 192 184 192 192 181 170 176 179 180 189 198 215 270 310 320 319 317 318 318 313 307
168 170 209 237 248 131 193 200 214 216 235 234 231 255 274 260 267 257 248 232 230 221 215 197 199 199 191 178 168 174 177 180 183 192 203 271 308 310 317 321 320 322 317 311
166 242 240 251 259 221 205 230 226 222 229 223 252 246 257 269 268 270 269 268 258 220 205 205 201 195 175 168 166 174 177 177 180 183 196 276 307 319 325 326 326 320 315 315
191 248 267 253 258 249 244 254 256 253 252 238 256 262 256 279 286 286 276 275 276 257 221 205 197 178 176 173 167 170 176 177 176 177 197 270 312 329 336 332 324 323 321 318
200 233 242 254 259 221 259 244 260 263 268 263 256 253 272 265 266 260 266 270 268 265 207 194 190 185 179 173 166 166 173 171 173 175 201 314 337 340 336 329 326 324 322 322
233 232 239 251 235 237 245 262 257 257 264 252 253 261 263 261 261 262 233 252 260 242 197 190 180 171 170 162 163 167 167 167 166 166 163 1 340 333 334 331 331 329 325 320
219 227 241 240 232 252 307 253 211 237 258 258 256 261 259 263 289 272 221 231 243 245 207 186 169 162 155 153 159 160 159 159 154 147 111 1 334 335 338 335 332 328 323 319
234 222 215 214 231 233 234 249 216 91 274 262 234 254 262 246 261 272 274 208 220 178 160 152 150 148 148 151 158 153 155 154 147 145 157 27 352 341 336 333 330 329 327 313
178 212 224 228 236 235 227 221 115 182 249 260 237 232 245 227 228 245 152 154 149 150 145 141 149 153 150 151 154 144 147 151 155 149 126 65 2 346 342 335 333 334 329 317
226 199 211 230 240 249 218 167 208 230 245 254 258 229 204 218 236 215 181 160 155 147 145 149 148 146 149 154 152 142 146 152 149 132 108 75 26 7 349 340 343 342 335 314
231 215 224 204 216 213 197 215 221 236 243 259 254 221 214 220 227 190 188 169 166 156 148 152 149 141 149 157 156 145 154 156 146 134 126 104 48 19 359 354 350 340 331 317
220 238 243 254 254 238 223 226 232 228 232 245 257 248 198 222 207 190 174 169 166 157 160 155 147 150 152 156 154 153 151 150 144 141 136 123 66 25 10 5 352 336 323 323
244 332 253 260 262 261 256 240 236 245 245 272 261 242 218 217 211 188 184 177 171 160 160 164 158 157 152 147 151 152 150 148 144 140 130 109 69 30 13 9 352 328 323 330
255 253 250 253 255 249 260 260 252 251 253 249 252 248 230 218 223 184 185 178 170 164 155 165 156 153 150 145 141 152 150 153 151 137 126 109 88 56 27 0 351 2 347 345